Home > Weather > Abilene > Past weeks

Flag for U.S.A. Weather for the Past 2 Weeks in Abilene, Texas, U.S.A.

Now
56 °F

Clear.


Feels Like: 51 °F
Forecast: 46 / 68 °F
Wind: 20 mph from South

Location: Abilene Regional Airport

Current Time: Feb 14, 2016 at 3:27:09 AM

Latest Report: Feb 14, 2016 at 2:52 AM


Visibility: 10 mi

Pressure: 29.87 "Hg (28.06 "Hg at 524m altitude)

Humidity: 72%

Dew point: 47 °F

Location of AbileneLocation

Historic Weather in Abilene — Graph

°F

Abilene Temperature Yesterday

Maximum temperature yesterday: 75 °F (at 4:52 PM)
Minimum temperature yesterday: 38 °F (at 7:52 AM)
Average temperature yesterday: 56 °F

High & Low Weather Summary for the Past Weeks

 TemperatureHumidityPressure
High82 °F (Feb 1, 3:52 PM)86% (Feb 1, 3:52 AM)30.50 "Hg (Feb 1, 3:52 AM)
Low24 °F (Feb 4, 7:52 AM)12% (Jan 30, 4:52 PM)29.36 "Hg (Feb 1, 4:52 PM)
Average51 °F42%30.11 "Hg
* Reported Jan 30 12:52 AM — Feb 14 12:52 AM, Abilene, Weather by CustomWeather, © 2016

Note: Actual official high and low records may vary slightly from our data, if they occured in-between our weather recording intervals... More about our weather records

Advertising

Abilene Weather History for the Previous 24 Hours

 ConditionsComfort  
Time TempWeatherWind HumidityBarometerVisibility
12:52 AM
Sun, Feb 14
57 °FClear.16 mph64%29.92 "Hg10 mi
11:52 PM
Sat, Feb 13
58 °FClear.14 mph51%29.96 "Hg10 mi
10:52 PM61 °FClear.22 mph42%29.97 "Hg10 mi
9:52 PM61 °FClear.18 mph39%29.99 "Hg10 mi
8:52 PM60 °FClear.12 mph46%30.02 "Hg10 mi
7:52 PM60 °FClear.10 mph49%30.03 "Hg10 mi
6:52 PM67 °FClear.10 mph39%30.03 "Hg10 mi
5:52 PM73 °FSunny.15 mph29%30.03 "Hg10 mi
4:52 PM75 °FSunny.15 mph32%30.03 "Hg10 mi
3:52 PM74 °FSunny.20 mph36%30.06 "Hg10 mi
2:52 PM73 °FSunny.18 mph36%30.10 "Hg10 mi
1:52 PM72 °FSunny.18 mph43%30.15 "Hg10 mi
12:52 PM68 °FSunny.14 mph44%30.21 "Hg10 mi
11:52 AM62 °FSunny.9 mph43%30.27 "Hg10 mi
10:52 AM58 °FSunny.14 mph43%30.31 "Hg10 mi
9:52 AM52 °FSunny.6 mph53%30.33 "Hg9 mi
8:52 AM44 °FSunny.6 mph71%30.34 "Hg10 mi
7:52 AM38 °FSunny.No wind83%30.34 "Hg9 mi
6:52 AM39 °FClear.3 mph76%30.33 "Hg10 mi
5:52 AM41 °FClear.5 mph74%30.32 "Hg10 mi
4:52 AM42 °FClear.No wind73%30.30 "Hg10 mi
3:52 AM43 °FClear.5 mph71%30.31 "Hg10 mi
Weather by CustomWeather, © 2016

See weather overviewHow to use our weather pages